www.pogodaiklimat.ru

Погода и климат >> Архив погоды >> Таиланд >> Nongbualamphu


ПОГОДА в Nongbualamphu

  • Прогноз погоды в Nongbualamphu
  • Монитор погоды в Nongbualamphu
  • Климат города

АРХИВ ПОГОДЫ в Nongbualamphu

Время (UTC), дата Ветер
(напр.,м/с)
 
Видим.   Явления Облачность Т
(С)
Тd
(С)
f
(%)
Тe
(С)
Тes
(С)
Комфортность P
(гПа)
Po
(гПа)
Тmin
(С)
Tmax
(С)
R
(мм)
R24
(мм)
S
(см)
00 18.05 СЗ 2 8000 м дымка 6/0
[Ci]
+25.5 +23.6 89 +35 +36 очень
душно
1007.7 981.8 +23.7
03 18.05 штиль 0 10 км 3/3 1000 м
[Sc]
+30.5 +23.4 66 +41 +57 опасность
перегрева
1007.4 981.9
06 18.05 СЗ 6 12 км 6/6 1000 м
[Sc]
+33.6 +24.5 59 +46 +50 опасность
перегрева
1005.4 980.2
09 18.05 З 2 12 км гроза без осадков 8/5 600 м
[Cb cap Ac As Cs]
+32.5 +23.7 60 +44 +47 опасность
перегрева
1003.2 978.0
12 18.05 В 2 10 км в посл. час дождь {гроза} 8/4 1000 м
[Sc Ac As Cs]
+25.2 +24.2 94 +35 +35 очень
душно
1005.5 979.6 +34.0 1
15 18.05 штиль 0 10 км {дождь} 8/3 1000 м
[Sc Ac As Cs]
+24.5 +23.0 91 +32 +32 очень
душно
1008.3 982.3 0.2
18 18.05 штиль 0 10 км {дождь} 6/3 1000 м
[Sc Cs]
+24.0 +22.8 93 +32 +32 очень
душно
1007.3 981.3
21 18.05 штиль 0 10 км 6/0
[Cs]
+23.0 +22.2 95 +31 +31 очень
душно
1005.9 979.8
00 19.05 В 3 11 км 6/0
[Cs]
+24.5 +23.0 91 +32 +34 очень
душно
1007.3 981.3 +23.0
03 19.05 штиль 0 15 км 4/3 600 м
[Cu med, cong Ac trans Cs]
+29.3 +24.0 73 +41 +55 опасность
перегрева
1007.7 982.1
06 19.05 С 3 15 км 6/3 600 м
[Cu med, cong Ac trans Cs]
+33.0 +22.9 55 +43 +53 опасность
перегрева
1004.8 979.6
09 19.05 СВ 4 12 км гроза без осадков 10/3 600 м
[Cb cap Ac cuf Ci ing]
+30.5 +21.6 59 +39 +40 очень
душно
1002.9 977.6
12 19.05 штиль 0 11 км {гроза} 10/3 600 м
[Sc Ac As Cs]
+25.8 +24.3 91 +36 +36 очень
душно
1004.5 978.7 +35.0 23
15 19.05 В 3 10 км 4/0
[Ac trans Cs]
+25.8 +24.5 93 +36 +36 очень
душно
1006.1 980.3
18 19.05 штиль 0 10 км 4/0
[Ac trans Cs]
+25.6 +24.3 93 +36 +36 очень
душно
1007.2 981.3
21 19.05 штиль 0 9000 м дымка 4/0
[Ac trans Cs]
+24.8 +24.1 96 +34 +34 очень
душно
1005.3 979.4
00 20.05 СВ 3 9000 м дымка 4/0
[Ac trans Cs]
+26.0 +24.6 92 +37 +38 очень
душно
1006.8 981.0 +23.7
03 20.05 З 3 12 км 3/3 1000 м
[Sc]
+31.5 +21.1 54 +39 +49 очень
душно
1007.5 982.1
06 20.05 ЮЗ 2 13 км 5/5 1000 м
[Sc]
+34.2 +22.3 50 +43 +54 опасность
перегрева
1005.3 980.2
09 20.05 штиль 0 13 км 5/5 1000 м
[Sc]
+34.5 +24.6 56 +47 +52 опасность
перегрева
1003.0 978.0
12 20.05 ЮЗ 2 12 км 6/3 1000 м
[Sc Cs]
+31.0 +26.1 75 +46 +46 опасность
перегрева
1003.8 978.4 +35.6
15 20.05 штиль 0 10 км 6/0
[Cs]
+28.0 +23.6 77 +38 +38 очень
душно
1006.2 980.6
18 20.05 штиль 0 10 км 6/0
[Cs]
+26.2 +23.7 86 +36 +36 очень
душно
1006.0 980.2
21 20.05 штиль 0 10 км 3/0
[Ci fib]
+25.5 +24.0 91 +35 +35 очень
душно
1005.8 980.0
00 21.05 штиль 0 11 км 6/0
[Cs]
+25.6 +24.7 95 +36 +39 очень
душно
1007.5 981.6 +24.7
03 21.05 СЗ 2 11 км 6/3 600 м
[Sc diur, vesp Ac trans Cs]
+31.9 +25.1 67 +45 +54 опасность
перегрева
1008.5 983.1
06 21.05 В 4 12 км 4/3 600 м
[Cu hum Ac As Ci ing]
+33.1 +23.0 55 +43 +52 опасность
перегрева
1006.0 980.8
09 21.05 ЮВ 5 12 км 8/3 600 м
[Cu hum Ac As Ci]
+34.6 +23.9 54 +46 +48 опасность
перегрева
1002.8 977.8
12 21.05 Ю 2 10 км 8/3 600 м
[Sc diur, vesp Ac As Cs]
+31.7 +24.3 65 +44 +44 опасность
перегрева
1005.3 980.0 +34.7
15 21.05 штиль 0 9000 м дымка 8/3 600 м
[Sc diur, vesp Ac As Cs]
+27.3 +22.6 76 +36 +36 очень
душно
1007.8 982.0
21 21.05 штиль 0 7000 м гроза, ливневой дождь 10/3 300 м
[Cb cap Ac und Cs]
+23.6 +23.6 100 +32 +32 очень
душно
1009.2 983.1 77
00 22.05 штиль 0 8000 м дымка {гроза} 8/0
[Ac As Cs]
+25.4 +24.8 96 +36 +38 очень
душно
1009.4 983.5 +21.7 77
03 22.05 СЗ 2 11 км {дождь} 10/4 600 м
[Sc Ac As Cs]
+26.5 +24.8 90 +38 +42 очень
душно
1010.9 985.0 0.3
06 22.05 штиль 0 12 км {дождь} 10/3 600 м
[Sc Ac As Cs]
+28.0 +26.2 90 +42 +52 опасность
перегрева
1008.1 982.4 0.3
09 22.05 СЗ 3 15 км 3/0
[Cs]
+30.6 +24.0 68 +42 +48 опасность
перегрева
1005.3 979.9
12 22.05 штиль 0 10 км 4/0
[Ac trans Cs]
+27.4 +23.9 81 +38 +38 очень
душно
1007.0 981.3 +31.0
15 22.05 В 2 10 км 3/0
[Cs]
+26.0 +24.0 89 +36 +36 очень
душно
1009.1 983.2
18 22.05 ЮВ 6 10 км дымка 3/0
[Cs]
+26.7 +25.1 91 +38 +38 очень
душно
1009.0 983.1
21 22.05 штиль 0 10 км 3/0
[Cs]
+25.3 +23.4 89 +34 +34 очень
душно
1008.2 982.3
00 23.05 В 3 10 км 8/0
[Ac As Cs]
+25.2 +23.4 90 +34 +35 очень
душно
1009.7 983.7 +24.9
03 23.05 З 2 12 км 8/4 600 м
[Sc diur, vesp Ac As Cs]
+29.3 +24.3 75 +41 +48 опасность
перегрева
1010.1 984.4
06 23.05 В 5 12 км 8/3 600 м
[Sc diur, vesp Ac As Ci]
+31.3 +23.7 64 +42 +47 опасность
перегрева
1007.8 982.4
09 23.05 СВ 4 12 км 5/4 600 м
[Cu hum Ci]
+32.0 +23.0 59 +42 +45 опасность
перегрева
1004.9 979.6
12 23.05 штиль 0 12 км 6/3 600 м
[Sc diur, vesp Ac As Cs]
+30.1 +25.0 74 +43 +43 опасность
перегрева
1005.9 980.4 +32.7
15 23.05 штиль 0 11 км 6/3 600 м
[Sc diur, vesp Ac As Cs]
+27.3 +24.3 84 +38 +38 очень
душно
1009.0 983.2
18 23.05 штиль 0 10 км 6/0
[Cs]
+26.7 +25.1 91 +38 +38 очень
душно
1007.8 982.0
21 23.05 штиль 0 10 км 6/0
[Cs]
+25.8 +24.9 95 +37 +37 очень
душно
1007.0 981.2
00 24.05 штиль 0 10 км ясно +25.3 +24.3 94 +35 +38 очень
душно
1009.2 983.2 +24.3
03 24.05 З 2 13 км 6/3 1000 м
[Sc Ac lent Cs]
+30.5 +22.8 64 +40 +49 очень
душно
1009.1 983.6
06 24.05 СЗ 2 13 км гроза без осадков 8/5 600 м
[Cb cap Ac As Cs]
+31.5 +24.5 66 +44 +51 опасность
перегрева
1006.9 981.6
09 24.05 СВ 7 13 км {гроза} 9/4 600 м
[Cb cap Ac As Cs]
+26.6 +23.1 81 +36 +36 очень
душно
1005.0 979.3
12 24.05 З 2 12 км {гроза} 9/4 600 м
[Cb cap Ac cuf Cs]
+26.2 +23.0 83 +35 +35 очень
душно
1006.8 981.0 +32.0
15 24.05 ЮВ 2 9000 м гроза, ливневой дождь 10/5 600 м
[Cb cap Ac As Cs]
+24.7 +22.9 90 +33 +33 очень
душно
1009.4 983.4 9
18 24.05 штиль 0 8000 м слабый дождь {гроза} 10/4 300 м
[Sc Ac As]
+23.5 +23.0 97 +31 +31 очень
душно
1008.2 982.1 28
21 24.05 штиль 0 10 км {дождь} 9/3 1000 м
[Sc Ac As Cs]
+23.2 +22.9 98 +32 +32 очень
душно
1007.2 981.1 1

 

Местоположение метеостанции Nongbualamphu (Таиланд): широта 17.23 долгота 102.43 высота над уровнем моря 228 м.

В архиве по умолчанию представлена погода в Nongbualamphu за последнюю неделю. Архивные данные за месяц целиком и за предыдущие месяцы, начиная с января 2011 года, Вы можете получить, выбрав интересующий диапазон дат из раскрывающегося списка и нажав кнопку "Ввод!".


*Определитесь, кто Вы:
робот инопланетянин человек

Внимание! Время в таблицах - всемирное. Для получения местного времени необходимо прибавить поправку, которая в Nongbualamphu равна 7 ч.

Смотрите также архив погоды в соседних городах и на ближайших метеорологических станциях:

Погода в Udon Thani (Таиланд) (43 км)
Погода в Loei Agromet (Таиланд) (77 км)
Погода в Nong Khai (Таиланд) (77 км)
Погода в Loei (Таиланд) (78 км)
Погода в Vientiane (Лаос) (85 км)
Погода в Khon Kaen (Таиланд) (99 км)
Погода в Tha Phra Agromet (Таиланд) (108 км)
Погода в Thangone (Лаос) (119 км)
Погода в Kosumphisai (Таиланд) (130 км)
Погода в Lomsak (Таиланд) (136 км)

Пояснения к столбцам:

Ветер - указаны скорость ветра в м/с - средняя за 10 мин, порывы в срок и между сроками (в фигурных скобках) и направление, откуда дует ветер: С - северный, СВ - северо-восточный, В - восточный, ЮВ - юго-восточный, Ю - южный, ЮЗ - юго-западный, З - западный, СЗ - северо-западный.
Видимость - горизонтальная дальность видимости в метрах или километрах. При видимости от 1 до 10 км при отсутствии осадков обычно наблюдается дымка, при ухудшении видимости до 1 км и менее - туман. В сухую погоду видимость может ухудшаться дымом, пылью или мглою.
Явления - указаны атмосферные явления, наблюдавшиеся в срок или в последний час перед сроком; фигурными скобками обозначены явления, наблюдавшиеся между сроками (за 1-3 часа до срока); квадратными скобками обозначены град или гололедные отложения с указанием их диаметра в мм.
Облачность - указаны через наклонную черту общая и нижняя облачность в баллах и высота нижней границы облаков в метрах; квадратными скобками обозначены формы облаков: Ci - перистые, Cs - перисто-слоистые, Cc - перисто-кучевые, Ac - высококучевые, As - высокослоистые, Sc - слоисто-кучевые, Ns - слоисто-дождевые, Cu - кучевые, Cb - кучево-дождевые. Подробнее классификацию облаков см. в Атласе облаков (PDF).
T - Температура воздуха - температура, измеренная на высоте 2 м над землей.
Td - Температура точки росы - температура, при понижении до которой содержащийся в воздухе водяной пар достигнет насыщения.
f - Относительная влажность воздуха - влажноcть воздуха, измеренная на высоте 2 м над землей.
Te - Эффективная температура - температура, которую ощущает одетый по сезону человек в тени. Характеристика душности погоды. При расчете учитывается влияние влажности воздуха и скорости ветра на теплоощущения человека.
Tes - Эффективная температура на солнце - температура, которую ощущает человек, с поправкой на солнечный нагрев. Характеристика знойности погоды. Зависит от высоты солнца над горизонтом, облачности и скорости ветра. Ночью, в пасмурную погоду, а также при ветре 12 м/с и более поправка равна нулю.
P - Атмосферное давление - приведенное к уровню моря атмосферное давление.
Po - Атмосферное давление - измеренное на уровне метеостанции атмосферное давление.
Tmin - Минимальная температура - минимум температуры воздуха на высоте 2 м над землей.
Tmax - Максимальная температура - максимум температуры воздуха на высоте 2 м над землей.
R - Количество осадков - Количество выпавших осадков за период времени, мм. При наведении курсора мыши на число - период времени, за который выпало указанное количество осадков.
R24 - Количество осадков - Количество выпавших осадков за 24 часа, мм.
S - Снежный покров - Высота снежного покрова, см. При наведении курсора мыши на число - состояние снежного покрова и степень покрытия местности в баллах.